[[{"header":{"parameterUnit":"m.s-1","parameterCategory":1,"la1":30.2991,"la2":30.254,"lo1":-89.0895,"lo2":-89.0444,"dy":0.0017,"dx":0.0017,"nx":28,"ny":28,"refTime":"2024-03-01T03:00:00:Z","depth":0,"parameterNumber":2,"parameterNumberName":"U-component_of_WINDS"},"data":[0,0,0,0,0,0,0,0,0,0,0,0,0,0,0,0,0,0,0,0,0,0,0,0,0,0,0,0,0,0,0,0,0,0,0,0,0,0,0,0,0,0,0,0,0,0,0,0,0,0,0,0,0,0,0,0,0,0,-2.0913,-2.0915,0,-2.109,-2.1092,-2.1094,-2.1141,-2.1139,-2.1138,-2.1137,-2.132,-2.1325,-2.1331,0,0,0,0,0,0,0,0,0,0,0,0,0,-2.0614,-2.0619,-2.0912,-2.0915,-2.0917,-2.109,-2.1092,-2.1094,-2.1141,-2.1139,-2.1138,-2.1137,-2.1318,-2.1325,-2.1332,0,0,0,0,0,0,0,0,0,0,0,0,0,-2.0762,-2.0621,-2.0912,-2.0961,-2.0967,-2.1089,-2.1092,-2.1095,-2.1141,-2.1139,-2.1138,-2.1136,-2.1315,-2.1324,-2.1333,-2.1419,0,0,-2.1359,-2.1363,0,0,0,0,0,0,0,0,-2.0754,-2.0773,-2.0952,-2.0958,-2.0965,-2.1091,-2.1054,-2.1204,-2.1141,-2.1075,-2.1137,-2.1135,-2.1245,-2.126,-2.1296,-2.1428,-2.1435,-2.136,-2.1366,-2.1369,-2.1372,0,0,0,0,0,0,0,-2.0744,-2.0766,-2.0983,-2.0954,-2.0962,-2.0974,-2.0993,-2.1082,-2.1167,-2.1081,-2.1084,-2.1105,-2.1248,-2.1288,-2.1301,-2.1438,-2.136,-2.1368,-2.1373,-2.1377,-2.1648,-2.165,0,0,0,0,0,0,-2.0725,-2.0757,-2.0977,-2.0988,-2.0853,-2.098,-2.1002,-2.1052,-2.1166,-2.1182,-2.1106,-2.1106,-2.1274,-2.1291,-2.1308,-2.1415,-2.1369,-2.1377,-2.1383,-2.1646,-2.1648,-2.165,0,0,0,0,0,0,-2.0718,-2.0744,-2.097,-2.0874,-2.0903,-2.0987,-2.1043,-2.1057,-2.1096,-2.1185,-2.1201,-2.1131,-2.1273,-2.1295,-2.1391,-2.1422,-2.1381,-2.1389,-2.1644,-2.1647,-2.1649,-2.1632,0,0,0,0,0,0,-2.0709,-2.0741,-2.0775,-2.0874,-2.0908,-2.105,-2.1046,-2.1061,-2.1111,-2.1113,-2.1212,-2.1227,-2.1273,-2.1377,-2.1399,-2.1434,-2.1396,-2.1641,-2.1645,-2.1648,-2.163,-2.1634,-2.1637,0,0,0,0,0,-2.0699,-2.0764,-2.0777,-2.0803,-2.0952,-2.1052,-2.1071,-2.1123,-2.1114,-2.1148,-2.1205,-2.1224,-2.1415,-2.1387,-2.1412,-2.1449,-2.1639,-2.1644,-2.1648,-2.1628,-2.1633,-2.1637,0,0,0,0,0,0,-2.0667,-2.0778,-2.0793,-2.0893,-2.0962,-2.106,-2.1105,-2.1126,-2.1201,-2.12,-2.1261,-2.1283,-2.1373,-2.1421,-2.1387,-2.1538,-2.1527,-2.1537,-2.1504,-2.1509,-2.1512,-2.1499,-2.1404,0,0,0,0,0,-2.0672,-2.0743,-2.0836,-2.0914,-2.0949,-2.102,-2.1066,-2.1099,-2.1174,-2.1204,-2.1268,-2.134,-2.1416,-2.1465,-2.1541,-2.1637,-2.1659,-2.1675,-2.1678,-2.1681,-2.1688,-2.1742,-2.175,-2.1665,-2.1665,-2.1664,0,0,-2.0682,-2.0751,-2.0793,-2.091,-2.0968,-2.104,-2.1045,-2.1122,-2.1176,-2.1216,-2.131,-2.1359,-2.1443,-2.1539,-2.1585,-2.1582,-2.1717,-2.1687,-2.1688,-2.1694,-2.1747,-2.1755,-2.1762,-2.1668,-2.1667,-2.1667,0,0,-2.0737,-2.0797,-2.0869,-2.0926,-2.1014,-2.1061,-2.1078,-2.1172,-2.1206,-2.1301,-2.1332,-2.1397,-2.1527,-2.1586,-2.1632,-2.1708,-2.1728,-2.1731,-2.1749,-2.18,-2.1807,-2.1813,-2.1839,-2.1848,-2.1738,-2.1738,-2.1738,0,-2.0739,-2.0849,-2.0903,-2.0977,-2.1027,-2.1066,-2.1138,-2.1192,-2.13,-2.1333,-2.1328,-2.1491,-2.1551,-2.166,-2.1679,-2.1716,-2.1736,-2.172,-2.1802,-2.1809,-2.1815,-2.1841,-2.185,-2.1738,-2.1738,-2.1738,-2.1738,0,-2.0847,-2.0922,-2.0969,-2.1071,-2.1127,-2.12,-2.1264,-2.1314,-2.1342,-2.1389,-2.1484,-2.1557,-2.1647,-2.1676,-2.1705,-2.1789,-2.1784,-2.179,-2.178,-2.1822,-2.1847,-2.1857,-2.1737,-2.1738,-2.1738,-2.1738,0,0,-2.0888,-2.1017,-2.1034,-2.108,-2.1179,-2.1238,-2.1312,-2.14,-2.1441,-2.1513,-2.1577,-2.1685,-2.1691,-2.1744,-2.1779,-2.1824,-2.1878,-2.1824,-2.1827,-2.1831,-2.1974,-2.1968,-2.1979,-2.1892,-2.1894,-2.1895,-2.1966,0,-2.0955,-2.1089,-2.1138,-2.1248,-2.1318,-2.1355,-2.142,-2.1487,-2.1533,-2.1599,-2.165,-2.1726,-2.1728,-2.1759,-2.1806,-2.1861,-2.1907,-2.1857,-2.1951,-2.1953,-2.1928,-2.1992,-2.1987,-2.205,-2.1976,-2.1978,-2.1979,0,-2.1052,-2.1124,-2.1241,-2.1329,-2.1361,-2.1418,-2.1501,-2.1564,-2.164,-2.167,-2.1729,-2.1761,-2.1839,-2.1825,-2.1933,-2.1898,-2.1939,-2.1972,-2.1976,-2.1986,-2.1968,-2.2003,-2.2072,-2.2081,-2.1995,-2.1994,-2.1993,0,-2.1069,-2.1196,-2.1282,-2.132,-2.1426,-2.1465,-2.1511,-2.1586,-2.1635,-2.1707,-2.1739,-2.182,-2.1865,-2.1926,-2.1979,-2.1964,-2.2083,-2.2073,-2.2109,-2.2108,-2.2133,-2.213,-2.2208,-2.216,-2.216,-2.216,-2.216,0,-2.1138,-2.1208,-2.129,-2.1343,-2.1422,-2.1477,-2.1554,-2.1602,-2.1668,-2.173,-2.1768,-2.1825,-2.1892,-2.1958,-2.2,-2.2083,-2.2103,-2.2129,-2.214,-2.2126,-2.2122,-2.2153,-2.215,-2.2162,-2.2162,-2.2161,-2.2161,0,-2.1171,-2.1229,-2.1325,-2.1416,-2.1441,-2.1495,-2.1573,-2.1626,-2.1673,-2.1751,-2.1773,-2.1846,-2.1926,-2.1985,-2.2089,-2.2117,-2.2205,-2.2216,-2.2179,-2.2184,-2.2217,-2.2212,-2.2317,-2.2333,-2.2274,-2.2275,-2.2275,0,-2.1211,-2.1265,-2.1362,-2.1406,-2.1452,-2.1523,-2.1572,-2.1629,-2.1679,-2.1769,-2.181,-2.1892,-2.1961,-2.2086,-2.2149,-2.2228,-2.2241,-2.2272,-2.2253,-2.2237,-2.224,-2.2236,-2.2241,-2.2274,-2.2275,-2.2275,-2.2275,0,-2.1276,-2.1302,-2.1372,-2.1451,-2.1509,-2.1575,-2.1641,-2.1675,-2.1743,-2.1797,-2.1879,-2.1932,-2.2036,-2.2117,-2.2202,-2.2249,-2.2273,-2.228,-2.2293,-2.2279,-2.2255,-2.2268,-2.2185,-2.2278,-2.2278,-2.2277,-2.2277,-2.2277,-2.1313,-2.1363,-2.1438,-2.1514,-2.157,-2.163,-2.1683,-2.1736,-2.1805,-2.1894,-2.1924,-2.2007,-2.2081,-2.2198,-2.2246,-2.2312,-2.2311,-2.233,-2.2334,-2.2338,-2.2336,-2.2245,-2.2328,-2.2328,-2.2328,-2.2328,-2.2328,0,-2.1379,-2.1429,-2.1499,-2.159,-2.1649,-2.1666,-2.174,-2.1788,-2.1862,-2.1928,-2.1995,-2.2087,-2.2166,-2.2234,-2.2315,-2.2354,-2.2367,-2.2374,-2.2371,-2.2381,-2.2333,-2.2313,-2.2362,-2.2362,-2.2362,-2.2362,-2.2362,-2.2362,-2.1421,-2.1505,-2.1539,-2.165,-2.17,-2.1782,-2.1822,-2.1878,-2.1931,-2.2033,-2.2098,-2.2141,-2.2209,-2.2295,-2.2367,-2.2385,-2.2412,-2.2416,-2.2436,-2.2389,-2.2385,-2.2381,-2.2363,-2.2421,-2.2422,-2.248,-2.248,-2.2481]},{"header":{"parameterUnit":"m.s-1","parameterCategory":1,"la1":30.2991,"la2":30.254,"lo1":-89.0895,"lo2":-89.0444,"dy":0.0017,"dx":0.0017,"nx":28,"ny":28,"refTime":"2024-03-01T03:00:00:Z","depth":0,"parameterNumber":3,"parameterNumberName":"V-component_of_WINDS"},"data":[0,0,0,0,0,0,0,0,0,0,0,0,0,0,0,0,0,0,0,0,0,0,0,0,0,0,0,0,0,0,0,0,0,0,0,0,0,0,0,0,0,0,0,0,0,0,0,0,0,0,0,0,0,0,0,0,0,0,4.8561,4.8564,0,4.8806,4.8809,4.8812,4.8854,4.8852,4.885,4.8848,4.9092,4.91,4.9108,0,0,0,0,0,0,0,0,0,0,0,0,0,4.812,4.8128,4.8561,4.8564,4.8567,4.8806,4.8809,4.8812,4.8855,4.8852,4.885,4.8847,4.9089,4.9099,4.9109,0,0,0,0,0,0,0,0,0,0,0,0,0,4.8333,4.8131,4.856,4.8617,4.8625,4.8805,4.8809,4.8813,4.8855,4.8852,4.8849,4.8846,4.9086,4.9098,4.911,4.9249,0,0,4.9149,4.9154,0,0,0,0,0,0,0,0,4.8321,4.8349,4.8606,4.8613,4.8622,4.8797,4.8743,4.8959,4.8856,4.8767,4.8848,4.8845,4.8995,4.9015,4.9068,4.926,4.9271,4.915,4.9157,4.9163,4.9166,0,0,0,0,0,0,0,4.8306,4.8339,4.8658,4.8609,4.8619,4.8627,4.8654,4.8784,4.8895,4.8775,4.8779,4.8808,4.8999,4.9055,4.9074,4.9274,4.9149,4.9161,4.9168,4.9173,4.9591,4.9594,0,0,0,0,0,0,4.8282,4.8326,4.865,4.8665,4.8461,4.8638,4.8668,4.8744,4.8894,4.8914,4.881,4.8809,4.9036,4.9059,4.9082,4.9254,4.9163,4.9174,4.9182,4.9587,4.9592,4.9596,0,0,0,0,0,0,4.8273,4.8311,4.864,4.8497,4.8539,4.8649,4.8733,4.875,4.8807,4.8921,4.894,4.8848,4.9034,4.9065,4.9207,4.9263,4.918,4.9191,4.9583,4.9589,4.9594,4.9599,0,0,0,0,0,0,4.826,4.8307,4.8363,4.8498,4.8547,4.8764,4.8737,4.8757,4.8829,4.883,4.8961,4.898,4.9034,4.9188,4.922,4.9279,4.9201,4.9579,4.9586,4.9592,4.9594,4.9604,4.9612,0,0,0,0,0,4.8244,4.8353,4.8366,4.8405,4.862,4.8767,4.8795,4.8857,4.8833,4.8889,4.8962,4.8976,4.9252,4.9203,4.9238,4.9302,4.9576,4.9584,4.9592,4.9591,4.9602,4.9612,0,0,0,0,0,0,4.822,4.8372,4.8388,4.8545,4.8643,4.8774,4.8846,4.8868,4.8973,4.8969,4.9039,4.9068,4.9207,4.9269,4.9211,4.9443,4.9412,4.9427,4.9398,4.9411,4.9419,4.9401,4.9212,0,0,0,0,0,4.8233,4.8343,4.8469,4.8595,4.8644,4.8736,4.8803,4.8843,4.8946,4.8987,4.907,4.9168,4.9277,4.9347,4.9453,4.9603,4.9631,4.9664,4.9673,4.968,4.9692,4.9775,4.9791,4.9622,4.9622,4.9622,0,0,4.8262,4.8358,4.8423,4.8593,4.8674,4.8783,4.8771,4.8887,4.8968,4.9004,4.9145,4.9209,4.9322,4.9469,4.9537,4.9524,4.9745,4.969,4.9695,4.9704,4.9785,4.9801,4.9815,4.9627,4.9626,4.9626,0,0,4.8369,4.8454,4.8568,4.8649,4.8773,4.8833,4.886,4.8989,4.9033,4.9176,4.9205,4.93,4.9486,4.9566,4.963,4.9766,4.9781,4.9798,4.9844,4.9924,4.9937,4.9949,4.9997,5.0014,4.981,4.981,4.981,0,4.8388,4.8557,4.8623,4.8739,4.8812,4.8851,4.8965,4.904,4.919,4.9238,4.9222,4.9456,4.9535,4.9701,4.9734,4.9785,4.9816,4.9784,4.9931,4.9943,4.9956,5.0002,5.002,4.9811,4.9811,4.9811,4.9811,0,4.8573,4.8689,4.8766,4.8913,4.8994,4.9108,4.919,4.9263,4.9295,4.9356,4.9499,4.9596,4.9722,4.9764,4.9795,4.9933,4.9921,4.9917,4.9886,4.9972,5.0016,5.0035,4.9813,4.9813,4.9812,4.9812,0,0,4.8674,4.8856,4.8883,4.895,4.9088,4.9177,4.9291,4.9417,4.9479,4.958,4.9676,4.9832,4.9829,4.9902,4.9943,5.0012,5.0113,5.0,5.0003,5.0017,5.0269,5.0272,5.0292,5.0123,5.0127,5.013,5.026,0,4.8798,4.9007,4.9069,4.9244,4.9351,4.9388,4.9488,4.9581,4.9641,4.9738,4.9802,4.9912,4.99,4.9944,5.0015,5.0086,5.0164,5.0077,5.0212,5.0216,5.0184,5.0315,5.0319,5.0437,5.0278,5.0281,5.0283,0,4.8971,4.9078,4.9264,4.9387,4.9434,4.9523,4.9643,4.9736,4.9841,4.9879,4.9961,4.9995,5.0113,5.0075,5.0237,5.0176,5.0235,5.0277,5.0283,5.0299,5.0255,5.0334,5.0476,5.0494,5.0311,5.0309,5.0307,0,4.9026,4.9216,4.9352,4.9407,4.9555,4.9616,4.9679,4.9782,4.9853,4.9956,5.0003,5.0117,5.018,5.0266,5.0329,5.0296,5.0485,5.0453,5.0519,5.0517,5.0558,5.0555,5.0712,5.0595,5.0594,5.0594,5.0594,0,4.9158,4.927,4.9378,4.9462,4.9587,4.9656,4.9777,4.9842,4.9933,5.0028,5.0065,5.0152,5.023,5.0327,5.0376,5.0503,5.053,5.0563,5.0575,5.0561,5.0556,5.06,5.0594,5.0599,5.0598,5.0597,5.0596,0,4.9241,4.9319,4.9469,4.9596,4.963,4.9717,4.9825,4.9905,4.9966,5.0085,5.0116,5.021,5.0326,5.0398,5.0544,5.0577,5.0716,5.0724,5.0681,5.0687,5.0749,5.0742,5.094,5.0969,5.0832,5.0833,5.0834,0,4.9321,4.9409,4.9545,4.9613,4.9678,4.9785,4.9858,4.9928,5.0002,5.0128,5.0193,5.0311,5.041,5.0593,5.0673,5.0784,5.0796,5.0857,5.0813,5.0795,5.0797,5.0791,5.08,5.0865,5.0866,5.0867,5.0868,0,4.9455,4.9488,4.9594,4.9713,4.9799,4.9895,4.9991,5.0043,5.0128,5.0208,5.0329,5.0405,5.0555,5.0672,5.079,5.0852,5.0874,5.0881,5.0902,5.0889,5.086,5.0877,5.0702,5.0876,5.0876,5.0875,5.0874,5.0874,4.9539,4.9618,4.9727,4.9843,4.9922,5.001,5.0092,5.0163,5.0266,5.0395,5.0428,5.0554,5.0654,5.0816,5.0881,5.0978,5.0969,5.0999,5.1007,5.1014,5.1015,5.0844,5.0999,5.0999,5.0999,5.0999,5.0999,0,4.9675,4.9746,4.9852,4.9986,5.0076,5.009,5.0195,5.0269,5.038,5.0474,5.057,5.0707,5.082,5.0908,5.1024,5.1084,5.1097,5.1112,5.1109,5.1123,5.1017,5.0987,5.11,5.11,5.11,5.11,5.11,5.11,4.9756,4.9891,4.9937,5.011,5.018,5.0305,5.0364,5.0444,5.052,5.0672,5.0767,5.0824,5.0915,5.1037,5.114,5.1163,5.1203,5.1217,5.1241,5.1141,5.113,5.112,5.1092,5.1225,5.1225,5.1339,5.134,5.1341]}]]